Location: Firdgum
(53.2488°N, 5.5615°E)
Time: 10:24:08
(UTC+00:00)

USA 81 - Pass Details

Date: 08 December 2019
Orbit: 785 x 788 km, 85.0° (Epoch: 06 January)

Event Time Altitude Azimuth Distance (km) Brightness Sun altitude
Rises 06:51:38 0° 350° (N) 3,292 6.9 -6.6°
Reaches altitude 10° 06:54:01 10° 347° (NNW) 2,359 6.1 -6.3°
Maximum altitude 06:59:12 59° 269° (W) 905 4.2 -5.6°
Drops below altitude 10° 07:04:22 10° 191° (S) 2,341 6.8 -5.0°
Sets 07:06:44 0° 188° (S) 3,266 7.6 -4.7°
